Location: Unspecified
(48.5539°N, 71.6350°W)
Time: 00:52:28
(UTC-05:00)

ISS - Pass Details

Date: 01 February 2019
Orbit: 403 x 411 km, 51.6° (Epoch: 22 February)

Event Time Altitude Azimuth Distance (km) Brightness Sun altitude
Rises 15:53:18 0° 244° (WSW) 2,322 2.3 6.5°
Reaches altitude 10° 15:55:22 10° 243° (WSW) 1,466 1.6 6.2°
Maximum altitude 15:58:39 80° 156° (SSE) 419 -3.6 5.8°
Drops below altitude 10° 16:01:58 10° 70° (ENE) 1,477 -1.6 5.3°
Sets 16:04:04 0° 69° (ENE) 2,342 -0.6 5.1°
